www.pogodaiklimat.ru

Погода и климат >> Архив погоды >> Южная Африка >> Коматидрааи


ПОГОДА в Коматидрааи

  • Прогноз погоды в Коматидрааи
  • Монитор погоды в Коматидрааи

АРХИВ ПОГОДЫ в Коматидрааи

Время (UTC), дата Ветер
(напр.,м/с)
 
Видим.   Явления Облачность Т
(С)
Тd
(С)
f
(%)
Тe
(С)
Тes
(С)
Комфортность P
(гПа)
Po
(гПа)
Тmin
(С)
Tmax
(С)
R
(мм)
R24
(мм)
S
(см)
06 9.01 Ю 2 н/о н/о +23.5 +22.1 92 +30 +30 очень
душно
852.4 988.3 +21.6 32
09 9.01 ЮЗ 2 н/о н/о +28.0 +22.3 71 +37 +37 очень
душно
854.8 988.6 +21.6 +28.1
12 9.01 В 1 н/о н/о +31.1 +23.4 64 +42 +42 опасность
перегрева
855.0 987.4 +21.6 +31.3 0.2
15 9.01 ЮВ 1 н/о н/о +30.5 +23.3 65 +41 +41 опасность
перегрева
853.6 986.2 +30.5 +32.2
18 9.01 В 1 н/о н/о +26.1 +22.2 79 +34 +34 очень
душно
852.7 987.3 +26.1 +32.2 0.2
21 9.01 ЮВ 1 н/о н/о +25.0 +22.5 86 +33 +33 очень
душно
853.6 988.8 +25.0 +32.2
00 10.01 штиль 0 н/о н/о +24.4 +22.1 87 +32 +32 очень
душно
852.3 987.7 +24.4 +32.2
03 10.01 штиль 0 н/о н/о +24.2 +22.6 91 +32 +32 очень
душно
851.8 987.3 +23.9 +32.2
06 10.01 В 1 н/о н/о +26.4 +22.9 81 +35 +35 очень
душно
854.2 988.8 +23.9 0.2
09 10.01 Ю 2 н/о н/о +30.2 +22.5 63 +39 +39 очень
душно
855.3 988.1 +23.9 +30.6
12 10.01 ЮВ 1 н/о н/о +32.7 +23.0 57 +43 +43 опасность
перегрева
854.3 985.8 +23.9 +32.7
15 10.01 СЗ 2 н/о н/о +31.6 +23.8 63 +43 +43 опасность
перегрева
850.5 982.4 +31.3 +33.6
18 10.01 С 2 н/о н/о +28.8 +25.0 80 +42 +42 опасность
перегрева
850.2 983.4 +28.8 +33.6
21 10.01 С 2 н/о н/о +27.0 +24.3 85 +38 +38 очень
душно
850.7 984.7 +27.0 +33.6
00 11.01 Ю 1 н/о н/о +26.1 +24.0 88 +36 +36 очень
душно
849.8 984.2 +26.1 +33.6
06 11.01 Ю 2 н/о н/о +25.4 +21.1 77 +32 +32 очень
душно
852.8 987.8 +24.7
09 11.01 ЮВ 1 н/о н/о +28.4 +22.2 69 +37 +37 очень
душно
854.3 987.9 +24.7 +28.4
12 11.01 СВ 2 н/о н/о +32.2 +24.9 65 +45 +45 опасность
перегрева
853.5 985.3 +24.7 +32.2
15 11.01 С 1 н/о н/о +33.0 +25.2 64 +47 +47 опасность
перегрева
850.8 982.0 +32.1 +33.4
18 11.01 СВ 1 н/о н/о +30.4 +25.8 76 +45 +45 опасность
перегрева
850.1 982.5 +30.4 +33.4
21 11.01 С 2 н/о н/о +27.9 +25.5 87 +41 +41 опасность
перегрева
850.3 983.9 +27.9 +33.4
00 12.01 С 1 н/о н/о +27.0 +25.0 89 +39 +39 очень
душно
849.3 983.2 +27.0 +33.4
03 12.01 СВ 2 н/о н/о +26.0 +24.6 92 +37 +37 очень
душно
848.9 983.3 +26.0 +33.4
06 12.01 С 3 н/о н/о +30.7 +25.2 73 +45 +45 опасность
перегрева
851.7 984.1 +25.9
09 12.01 СЗ 5 н/о н/о +36.7 +24.5 50 +49 +49 опасность
перегрева
853.2 982.8 +25.9 +36.7
12 12.01 ЮВ 1 н/о н/о +39.5 +24.2 42 +51 +51 опасность
перегрева
853.5 981.9 +25.9 +40.0
15 12.01 ЮВ 2 н/о н/о +33.7 +22.4 52 +43 +43 опасность
перегрева
851.1 982.0 +33.7 +40.0
18 12.01 ЮВ 1 н/о н/о +28.4 +21.0 64 +36 +36 очень
душно
852.3 985.8 +28.4 +40.0
21 12.01 ЮВ 4 н/о н/о +25.1 +20.0 73 +31 +31 очень
душно
854.0 989.2 +25.1 +40.0
00 13.01 Ю 2 н/о н/о +23.0 +20.2 84 +30 +30 очень
душно
853.0 989.2 +23.0 +40.0
03 13.01 ЮЗ 1 н/о н/о +22.9 +20.4 86 +30 +30 очень
душно
852.4 988.6 +22.7 +40.0
06 13.01 ЮВ 1 н/о н/о +24.8 +20.5 77 +31 +31 очень
душно
854.1 989.5 +22.7
09 13.01 СВ 3 н/о н/о +30.7 +22.5 62 +40 +40 очень
душно
855.9 988.5 +22.7 +30.7
12 13.01 С 3 н/о н/о +34.4 +24.8 57 +47 +47 опасность
перегрева
855.1 985.9 +22.7 +34.4
15 13.01 С 3 н/о н/о +33.7 +24.7 59 +47 +47 опасность
перегрева
853.3 984.3 +33.7 +35.2
18 13.01 СВ 2 н/о н/о +30.1 +24.6 72 +42 +42 опасность
перегрева
852.0 984.7 +30.1 +35.2
21 13.01 штиль 0 н/о н/о +28.4 +24.7 80 +40 +40 очень
душно
853.7 987.3 +28.4 +35.2
00 14.01 Ю 1 н/о н/о +26.8 +24.1 85 +37 +37 очень
душно
854.2 988.6 +26.8 +35.2
03 14.01 Ю 2 н/о н/о +26.3 +24.1 88 +37 +37 очень
душно
855.4 990.1 +26.2 +35.2
06 14.01 ЮВ 2 н/о н/о +27.0 +23.1 79 +36 +36 очень
душно
857.3 991.8 +26.2
09 14.01 ЮЗ 3 н/о н/о +27.7 +22.9 75 +37 +37 очень
душно
857.4 991.6 +26.2 +28.1
12 14.01 ЮЗ 2 н/о н/о +32.2 +24.1 62 +44 +44 опасность
перегрева
857.1 989.1 +26.2 +32.2
15 14.01 ЮВ 1 н/о н/о +33.3 +23.2 56 +44 +44 опасность
перегрева
856.2 987.6 +31.8 +33.5
18 14.01 штиль 0 н/о н/о +28.2 +23.6 76 +38 +38 очень
душно
855.1 988.9 +28.2 +33.5
21 14.01 штиль 0 н/о н/о +26.0 +23.3 85 +35 +35 очень
душно
855.4 990.3 +26.0 +33.5
00 15.01 ЮЗ 1 н/о н/о +25.0 +23.1 89 +33 +33 очень
душно
854.0 989.3 +24.9 +33.5
03 15.01 Ю 1 н/о н/о +24.6 +23.0 91 +33 +33 очень
душно
853.8 989.2 +24.6 +33.5
06 15.01 Ю 1 н/о н/о +24.6 +23.0 91 +33 +33 очень
душно
853.8 989.2 +24.6 +33.5
09 15.01 ЮВ 1 н/о н/о +32.7 +23.5 58 +43 +43 опасность
перегрева
856.2 987.9 +24.6 +32.7
12 15.01 ЮВ 1 н/о н/о +32.7 +23.5 58 +43 +43 опасность
перегрева
856.2 987.9 +24.6 +32.7
15 15.01 ЮВ 2 н/о н/о +35.2 +23.8 52 +47 +47 опасность
перегрева
855.4 985.8 +24.6 +35.5
18 15.01 ЮВ 1 н/о н/о +32.7 +23.2 57 +43 +43 опасность
перегрева
854.6 986.2 +32.7 +35.7
21 15.01 Ю 2 н/о н/о +26.1 +22.6 81 +34 +34 очень
душно
855.7 990.6 +26.1 +35.7
00 16.01 Ю 3 н/о н/о +25.7 +22.0 80 +33 +33 очень
душно
854.0 988.9 +25.7 +35.7
03 16.01 Ю 3 н/о н/о +25.7 +22.0 80 +33 +33 очень
душно
854.0 988.9 +25.7 +35.7

 

Местоположение метеостанции Коматидрааи (Южная Африка): широта -25.51 долгота 31.90 высота над уровнем моря 183 м.

В архиве по умолчанию представлена погода в Коматидрааи за последнюю неделю. Архивные данные за месяц целиком и за предыдущие месяцы, начиная с января 2011 года, Вы можете получить, выбрав интересующий диапазон дат из раскрывающегося списка и нажав кнопку "Ввод!".


*Определитесь, кто Вы:
робот инопланетянин человек

Внимание! Время в таблицах - всемирное. Для получения местного времени необходимо прибавить поправку, которая равна 2 ч.

Смотрите также архив погоды в соседних городах и на ближайших метеорологических станциях:

Погода в Майиване (Свазиленд) (58 км)
Погода в Скукузе (Южная Африка) (66 км)
Погода в Мапуто (Мозамбик) (81 км)
Погода в Пиггс-Пике (Свазиленд) (83 км)
Погода в Чангалане (Мозамбик) (90 км)
Погода в Мбомбеле (Южная Африка) (98 км)
Погода в Ситеки (Свазиленд) (102 км)
Погода в Граскопе (Южная Африка) (124 км)
Погода в Граскоп-Скуле (Южная Африка) (126 км)
Погода в Манзини (Свазиленд) (128 км)

Пояснения к столбцам:

Ветер - указаны скорость ветра в м/с - средняя за 10 мин, порывы в срок и между сроками (в фигурных скобках) и направление, откуда дует ветер: С - северный, СВ - северо-восточный, В - восточный, ЮВ - юго-восточный, Ю - южный, ЮЗ - юго-западный, З - западный, СЗ - северо-западный.
Видимость - горизонтальная дальность видимости в метрах или километрах. При видимости от 1 до 10 км при отсутствии осадков обычно наблюдается дымка, при ухудшении видимости до 1 км и менее - туман. В сухую погоду видимость может ухудшаться дымом, пылью или мглою.
Явления - указаны атмосферные явления, наблюдавшиеся в срок или в последний час перед сроком; фигурными скобками обозначены явления, наблюдавшиеся между сроками (за 1-3 часа до срока); квадратными скобками обозначены град или гололедные отложения с указанием их диаметра в мм.
Облачность - указаны через наклонную черту общая и нижняя облачность в баллах и высота нижней границы облаков в метрах; квадратными скобками обозначены формы облаков: Ci - перистые, Cs - перисто-слоистые, Cc - перисто-кучевые, Ac - высококучевые, As - высокослоистые, Sc - слоисто-кучевые, Ns - слоисто-дождевые, Cu - кучевые, Cb - кучево-дождевые. Подробнее классификацию облаков см. в Атласе облаков (PDF).
T - Температура воздуха - температура, измеренная на высоте 2 м над землей.
Td - Температура точки росы - температура, при понижении до которой содержащийся в воздухе водяной пар достигнет насыщения.
f - Относительная влажность воздуха - влажноcть воздуха, измеренная на высоте 2 м над землей.
Te - Эффективная температура - температура, которую ощущает одетый по сезону человек в тени. Характеристика душности погоды. При расчете учитывается влияние влажности воздуха и скорости ветра на теплоощущения человека.
Tes - Эффективная температура на солнце - температура, которую ощущает человек, с поправкой на солнечный нагрев. Характеристика знойности погоды. Зависит от высоты солнца над горизонтом, облачности и скорости ветра. Ночью, в пасмурную погоду, а также при ветре 12 м/с и более поправка равна нулю.
P - Атмосферное давление - приведенное к уровню моря атмосферное давление.
Po - Атмосферное давление - измеренное на уровне метеостанции атмосферное давление.
Tmin - Минимальная температура - минимум температуры воздуха на высоте 2 м над землей.
Tmax - Максимальная температура - максимум температуры воздуха на высоте 2 м над землей.
R - Количество осадков - Количество выпавших осадков за период времени, мм. При наведении курсора мыши на число - период времени, за который выпало указанное количество осадков.
R24 - Количество осадков - Количество выпавших осадков за 24 часа, мм.
S - Снежный покров - Высота снежного покрова, см. При наведении курсора мыши на число - состояние снежного покрова и степень покрытия местности в баллах.